�������l�o���
Date,Time,MP-1(��Sv/h),MP-2(��Sv/h),MP-3(��Sv/h),MP-4(��Sv/h),MP-5(��Sv/h),MP-6(��Sv/h),MP-7(��Sv/h),MP-8(��Sv/h),����,����(m/s),���J
2019/05/31,00:00,0.757,1.098,0.755,1.368,1.019,0.439,0.763,0.721,��쐼,6.0,��
2019/05/31,00:10,0.756,1.098,0.756,1.368,1.022,0.440,0.762,0.721,��,6.5,��
2019/05/31,00:20,0.756,1.101,0.754,1.369,1.020,0.438,0.762,0.721,��,6.2,��
2019/05/31,00:30,0.758,1.099,0.758,1.369,1.021,0.439,0.763,0.723,��쐼,6.6,��
2019/05/31,00:40,0.755,1.098,0.756,1.367,1.020,0.440,0.762,0.721,��,7.0,��
2019/05/31,00:50,0.757,1.100,0.756,1.366,1.018,0.438,0.763,0.720,��,7.4,��
2019/05/31,01:00,0.758,1.099,0.754,1.366,1.021,0.439,0.761,0.721,��쐼,7.5,��
2019/05/31,01:10,0.757,1.098,0.755,1.366,1.020,0.439,0.762,0.721,��,6.9,��
2019/05/31,01:20,0.756,1.098,0.755,1.368,1.021,0.438,0.761,0.721,��쐼,6.5,��
2019/05/31,01:30,0.756,1.100,0.755,1.367,1.021,0.440,0.762,0.721,��쐼,5.9,��
2019/05/31,01:40,0.759,1.099,0.758,1.366,1.021,0.440,0.762,0.720,��,5.9,��
2019/05/31,01:50,0.757,1.098,0.756,1.366,1.021,0.439,0.763,0.721,��,6.5,��
2019/05/31,02:00,0.757,1.100,0.755,1.367,1.020,0.440,0.762,0.721,��,6.3,��
2019/05/31,02:10,0.757,1.099,0.754,1.371,1.020,0.440,0.763,0.720,��쓌,6.8,��
2019/05/31,02:20,0.757,1.100,0.755,1.366,1.018,0.439,0.762,0.720,��,7.6,��
2019/05/31,02:30,0.755,1.100,0.755,1.367,1.020,0.439,0.764,0.720,��,8.7,��
2019/05/31,02:40,0.756,1.101,0.755,1.369,1.021,0.437,0.762,0.721,��,7.9,��
2019/05/31,02:50,0.756,1.102,0.756,1.367,1.020,0.441,0.760,0.721,��,6.3,��
2019/05/31,03:00,0.758,1.099,0.757,1.370,1.019,0.439,0.761,0.720,��,6.6,��
2019/05/31,03:10,0.759,1.099,0.755,1.369,1.020,0.439,0.762,0.721,��,7.0,��
2019/05/31,03:20,0.757,1.100,0.757,1.366,1.020,0.439,0.762,0.720,��,6.8,��
2019/05/31,03:30,0.758,1.101,0.754,1.371,1.019,0.440,0.762,0.721,��,7.3,��
2019/05/31,03:40,0.758,1.101,0.756,1.369,1.020,0.438,0.762,0.723,��,7.8,��
2019/05/31,03:50,0.756,1.099,0.755,1.365,1.018,0.439,0.765,0.720,��,8.0,��
2019/05/31,04:00,0.756,1.100,0.757,1.367,1.023,0.439,0.764,0.720,��,7.7,��
2019/05/31,04:10,0.757,1.099,0.756,1.366,1.019,0.438,0.764,0.721,��,7.9,��
2019/05/31,04:20,0.758,1.101,0.756,1.366,1.022,0.439,0.763,0.719,��,7.1,��
2019/05/31,04:30,0.756,1.098,0.755,1.368,1.020,0.438,0.763,0.720,��,6.8,��
2019/05/31,04:40,0.757,1.097,0.756,1.367,1.018,0.439,0.761,0.719,��,7.1,��
2019/05/31,04:50,0.758,1.100,0.755,1.365,1.018,0.439,0.762,0.721,��,7.4,��
2019/05/31,05:00,0.758,1.097,0.757,1.367,1.021,0.438,0.762,0.721,��,7.7,��
2019/05/31,05:10,0.758,1.097,0.756,1.367,1.020,0.438,0.762,0.721,��,7.7,��
2019/05/31,05:20,0.757,1.100,0.755,1.367,1.020,0.439,0.763,0.720,��,7.9,��
2019/05/31,05:30,0.757,1.100,0.757,1.369,1.021,0.439,0.762,0.721,��,8.5,��
2019/05/31,05:40,0.758,1.099,0.755,1.369,1.021,0.441,0.763,0.721,��,8.5,��
2019/05/31,05:50,0.758,1.099,0.755,1.368,1.022,0.438,0.763,0.722,��,8.1,��
2019/05/31,06:00,0.757,1.098,0.756,1.368,1.019,0.438,0.763,0.721,��,8.2,��
2019/05/31,06:10,0.757,1.098,0.755,1.370,1.020,0.439,0.763,0.721,��,7.1,��
2019/05/31,06:20,0.758,1.099,0.755,1.367,1.022,0.438,0.763,0.722,��,7.7,��
2019/05/31,06:30,0.760,1.099,0.758,1.367,1.019,0.439,0.764,0.722,��,7.9,��
2019/05/31,06:40,0.758,1.099,0.756,1.369,1.020,0.437,0.761,0.723,��,7.6,��
2019/05/31,06:50,0.757,1.098,0.756,1.370,1.019,0.437,0.761,0.720,��,8.3,��
2019/05/31,07:00,0.757,1.099,0.757,1.369,1.021,0.437,0.762,0.722,��,7.8,��
2019/05/31,07:10,0.757,1.099,0.757,1.368,1.018,0.436,0.761,0.723,��,7.0,��
2019/05/31,07:20,0.758,1.097,0.757,1.368,1.016,0.436,0.762,0.721,��,6.1,��
2019/05/31,07:30,0.756,1.097,0.759,1.370,1.018,0.437,0.762,0.722,��,5.7,��
2019/05/31,07:40,0.757,1.098,0.757,1.368,1.017,0.438,0.761,0.721,��,5.6,��
2019/05/31,07:50,0.758,1.097,0.756,1.367,1.017,0.437,0.762,0.721,��,5.9,��
2019/05/31,08:00,0.758,1.100,0.757,1.368,1.019,0.436,0.762,0.720,��,5.9,��
2019/05/31,08:10,0.758,1.098,0.756,1.366,1.022,0.436,0.760,0.720,��,7.6,��
2019/05/31,08:20,0.759,1.094,0.757,1.367,1.019,0.436,0.763,0.721,��,8.1,��
2019/05/31,08:30,0.755,1.096,0.755,1.370,1.018,0.436,0.762,0.726,��쓌,9.8,��
2019/05/31,08:40,0.755,1.096,0.755,1.369,1.020,0.436,0.760,0.725,��쓌,10.5,��
2019/05/31,08:50,0.756,1.097,0.755,1.368,1.019,0.436,0.762,0.724,��,9.5,��
2019/05/31,09:00,0.755,1.096,0.754,1.368,1.021,0.436,0.761,0.722,��,7.4,��
2019/05/31,09:10,0.755,1.095,0.756,1.370,1.019,0.436,0.763,0.723,��,9.8,��
2019/05/31,09:20,0.758,1.095,0.755,1.369,1.020,0.437,0.762,0.722,��,9.9,��
2019/05/31,09:30,0.756,1.098,0.757,1.368,1.018,0.437,0.763,0.723,��,8.7,��
2019/05/31,09:40,0.758,1.093,0.755,1.369,1.018,0.438,0.763,0.721,��쓌,10.2,��
2019/05/31,09:50,0.756,1.097,0.753,1.371,1.021,0.438,0.762,0.720,��,10.5,��
2019/05/31,10:00,0.756,1.092,0.755,1.367,1.022,0.436,0.762,0.721,��쓌,13.3,��
2019/05/31,10:10,0.757,1.096,0.755,1.369,1.021,0.437,0.761,0.722,��,11.8,��
2019/05/31,10:20,0.756,1.095,0.755,1.368,1.021,0.437,0.759,0.720,��,10.2,��
2019/05/31,10:30,0.757,1.094,0.753,1.367,1.022,0.439,0.763,0.720,��쓌,10.5,��
2019/05/31,10:40,0.758,1.096,0.754,1.370,1.022,0.439,0.762,0.720,��,11.4,��
2019/05/31,10:50,0.755,1.100,0.756,1.371,1.022,0.440,0.763,0.720,��,13.3,��
2019/05/31,11:00,0.758,1.098,0.754,1.372,1.021,0.438,0.763,0.722,��,11.9,��
2019/05/31,11:10,0.757,1.098,0.755,1.368,1.020,0.439,0.763,0.721,��쓌,11.3,��
2019/05/31,11:20,0.759,1.095,0.754,1.369,1.021,0.439,0.763,0.722,��,10.5,��
2019/05/31,11:30,0.756,1.097,0.755,1.369,1.023,0.440,0.763,0.721,��쓌,9.4,��
2019/05/31,11:40,0.758,1.096,0.756,1.367,1.021,0.439,0.764,0.721,��,9.5,��
2019/05/31,11:50,0.759,1.094,0.755,1.368,1.023,0.439,0.764,0.720,��,10.0,��
2019/05/31,12:00,0.760,1.098,0.755,1.369,1.021,0.439,0.762,0.720,��,11.1,��
2019/05/31,12:10,0.758,1.102,0.757,1.367,1.022,0.438,0.764,0.722,��,10.2,��
2019/05/31,12:20,0.760,1.097,0.756,1.372,1.025,0.439,0.763,0.718,��,10.7,��
2019/05/31,12:30,0.757,1.102,0.758,1.368,1.022,0.441,0.763,0.718,��,10.6,��
2019/05/31,12:40,0.760,1.098,0.759,1.370,1.025,0.440,0.763,0.722,��,8.2,��
2019/05/31,12:50,0.760,1.101,0.759,1.367,1.023,0.440,0.763,0.718,��,11.6,��
2019/05/31,13:00,0.761,1.103,0.757,1.368,1.025,0.440,0.764,0.721,��쓌,9.9,��
2019/05/31,13:10,0.760,1.101,0.759,1.369,1.023,0.441,0.763,0.721,��쓌,9.7,��
2019/05/31,13:20,0.759,1.098,0.759,1.371,1.025,0.440,0.764,0.720,��쓌,12.0,��
2019/05/31,13:30,0.760,1.098,0.758,1.370,1.027,0.440,0.763,0.721,��,10.8,��
2019/05/31,13:40,0.760,1.099,0.758,1.370,1.025,0.439,0.763,0.721,��,9.5,��
2019/05/31,13:50,0.761,1.100,0.757,1.372,1.027,0.440,0.763,0.719,��,9.5,��
2019/05/31,14:00,0.759,1.098,0.759,1.371,1.026,0.440,0.764,0.721,��,11.6,��
2019/05/31,14:10,0.760,1.100,0.758,1.371,1.024,0.440,0.765,0.721,��,11.8,��
2019/05/31,14:20,0.759,1.100,0.756,1.371,1.026,0.438,0.764,0.721,��쓌,10.2,��
2019/05/31,14:30,0.758,1.098,0.759,1.372,1.026,0.440,0.764,0.720,��,9.1,��
2019/05/31,14:40,0.760,1.100,0.759,1.374,1.026,0.440,0.766,0.721,��,7.9,��
2019/05/31,14:50,0.761,1.100,0.759,1.374,1.024,0.440,0.765,0.721,��,8.4,��
2019/05/31,15:00,0.758,1.101,0.758,1.372,1.027,0.441,0.764,0.721,��쐼,7.2,��
2019/05/31,15:10,0.758,1.099,0.757,1.372,1.026,0.439,0.765,0.721,��,7.0,��
2019/05/31,15:20,0.761,1.100,0.758,1.373,1.027,0.440,0.764,0.720,��,8.3,��
2019/05/31,15:30,0.760,1.100,0.757,1.374,1.026,0.440,0.764,0.722,��,6.0,��
2019/05/31,15:40,0.760,1.100,0.759,1.377,1.024,0.440,0.765,0.721,��,7.2,��
2019/05/31,15:50,0.761,1.101,0.758,1.377,1.026,0.441,0.765,0.721,��,8.0,��
2019/05/31,16:00,0.760,1.101,0.759,1.376,1.023,0.439,0.763,0.722,��,9.1,��
2019/05/31,16:10,0.761,1.104,0.760,1.376,1.026,0.439,0.763,0.723,��,8.6,��
2019/05/31,16:20,0.761,1.102,0.758,1.374,1.026,0.440,0.763,0.721,��,7.9,��
2019/05/31,16:30,0.760,1.102,0.760,1.377,1.025,0.440,0.765,0.722,��,7.5,��
2019/05/31,16:40,0.760,1.104,0.758,1.374,1.026,0.440,0.764,0.721,��,8.5,��
2019/05/31,16:50,0.761,1.102,0.759,1.377,1.023,0.439,0.765,0.722,��,7.4,��
2019/05/31,17:00,0.759,1.106,0.759,1.377,1.025,0.440,0.763,0.721,��,7.6,��
2019/05/31,17:10,0.760,1.105,0.759,1.374,1.026,0.441,0.764,0.720,��,7.5,��
2019/05/31,17:20,0.759,1.103,0.761,1.375,1.026,0.438,0.764,0.722,��,8.1,�L
2019/05/31,17:30,0.759,1.103,0.759,1.375,1.025,0.440,0.765,0.722,��,8.8,�L
2019/05/31,17:40,0.760,1.105,0.759,1.378,1.027,0.439,0.764,0.720,��,9.5,��
2019/05/31,17:50,0.762,1.104,0.760,1.374,1.025,0.440,0.765,0.723,��,7.3,��
2019/05/31,18:00,0.761,1.104,0.759,1.378,1.026,0.438,0.764,0.723,��쐼,7.4,�L
2019/05/31,18:10,0.759,1.104,0.762,1.377,1.027,0.440,0.765,0.723,��쐼,7.1,�L
2019/05/31,18:20,0.761,1.105,0.763,1.376,1.026,0.439,0.766,0.723,��쐼,7.7,�L
2019/05/31,18:30,0.761,1.107,0.763,1.377,1.026,0.439,0.763,0.723,��,7.1,�L
2019/05/31,18:40,0.761,1.109,0.761,1.379,1.027,0.441,0.767,0.723,��,6.9,�L
2019/05/31,18:50,0.761,1.107,0.764,1.377,1.029,0.440,0.764,0.724,��,6.7,�L
2019/05/31,19:00,0.762,1.106,0.764,1.379,1.027,0.441,0.765,0.723,��쐼,5.5,�L
2019/05/31,19:10,0.763,1.110,0.763,1.378,1.030,0.441,0.764,0.723,�쐼,3.9,�L
2019/05/31,19:20,0.763,1.108,0.766,1.377,1.030,0.441,0.765,0.725,�k�k��,5.2,�L
2019/05/31,19:30,0.760,1.111,0.764,1.378,1.029,0.441,0.767,0.724,�k�k��,5.6,�L
2019/05/31,19:40,0.764,1.109,0.764,1.380,1.030,0.442,0.766,0.724,�k�k��,5.9,�L
2019/05/31,19:50,0.763,1.109,0.764,1.379,1.030,0.442,0.766,0.723,�k,4.3,�L
2019/05/31,20:00,0.764,1.110,0.763,1.378,1.029,0.443,0.763,0.723,�k�k��,5.3,�L
2019/05/31,20:10,0.764,1.107,0.762,1.379,1.030,0.441,0.765,0.724,�k��,5.2,�L
2019/05/31,20:20,0.761,1.101,0.760,1.376,1.029,0.442,0.766,0.723,�k��,6.6,�L
2019/05/31,20:30,0.760,1.096,0.762,1.376,1.026,0.442,0.765,0.723,�k��,7.6,�L
2019/05/31,20:40,0.760,1.097,0.760,1.376,1.022,0.442,0.762,0.723,�k��,5.9,�L
2019/05/31,20:50,0.759,1.093,0.760,1.374,1.024,0.441,0.763,0.723,�k��,5.8,�L
2019/05/31,21:00,0.757,1.090,0.761,1.373,1.022,0.440,0.762,0.723,�k��,5.6,�L
2019/05/31,21:10,0.757,1.089,0.757,1.372,1.020,0.438,0.761,0.721,���k��,4.5,�L
2019/05/31,21:20,0.755,1.085,0.757,1.374,1.018,0.440,0.760,0.721,�k�k��,1.9,�L
2019/05/31,21:30,0.755,1.083,0.757,1.371,1.013,0.439,0.758,0.720,��,1.9,�L
2019/05/31,21:40,0.753,1.076,0.755,1.368,1.009,0.439,0.758,0.717,���k��,3.0,�L
2019/05/31,21:50,0.752,1.074,0.752,1.365,1.005,0.439,0.757,0.716,���k��,2.6,�L
2019/05/31,22:00,0.745,1.071,0.749,1.362,1.003,0.440,0.757,0.716,���k��,2.5,�L
2019/05/31,22:10,0.749,1.072,0.751,1.360,1.003,0.437,0.757,0.718,�k��,3.2,�L
2019/05/31,22:20,0.748,1.072,0.750,1.360,1.005,0.439,0.757,0.716,���k��,1.9,�L
2019/05/31,22:30,0.748,1.070,0.750,1.359,1.003,0.437,0.758,0.714,���k��,0.9,�L
2019/05/31,22:40,0.744,1.070,0.749,1.357,1.001,0.436,0.758,0.715,�k��,1.5,�L
2019/05/31,22:50,0.744,1.067,0.748,1.354,0.999,0.439,0.756,0.714,�k��,2.3,�L
2019/05/31,23:00,0.745,1.065,0.743,1.353,0.997,0.438,0.756,0.716,�k��,1.9,�L
2019/05/31,23:10,0.745,1.065,0.746,1.354,0.996,0.436,0.755,0.716,�k�k��,1.7,�L
2019/05/31,23:20,0.745,1.061,0.743,1.350,0.997,0.437,0.756,0.715,�k�k��,0.6,�L
2019/05/31,23:30,0.744,1.066,0.745,1.351,0.996,0.435,0.756,0.714,�k�k��,1.5,�L
2019/05/31,23:40,0.742,1.064,0.745,1.348,0.996,0.436,0.755,0.716,�k�k��,1.5,�L
2019/05/31,23:50,0.742,1.063,0.744,1.349,0.996,0.436,0.755,0.715,�k�k��,1.1,�L
